Flag for Germany Weather past 2 weeks in Görlitz, Saxony, Germany

Now
50 °F

Fog.


Feels Like: 50 °F
Forecast: 50 / 66 °F
Wind: 1 mph from Southeast

Location: Goerlitz

Current Time: Oct 2, 2014 at 6:59:40 AM

Latest Report: Oct 2, 2014 at 6:00 AM


Visibility: 0 mi

Pressure: 30.39 "Hg

Humidity: 99%

Dew point: 50 °F

Location of GörlitzLocation

Historic Weather in Görlitz — Graph

°F

Görlitz temperature yesterday

Maximum temperature yesterday: 65 °F (at 5:00 PM)
Minimum temperature yesterday: 53 °F (at 11:00 PM)
Average temperature yesterday: 59 °F

Past Weeks' High & Low Weather Summary

 TemperatureHumidityPressure
High73 °F (Sep 17, 2:00 PM)99% (Sep 17, 7:00 AM)30.42 "Hg (Sep 17, 7:00 AM)
Low40 °F (Sep 24, 4:00 AM)50% (Sep 17, 1:00 PM)29.82 "Hg (Sep 22, 4:00 PM)
Average57 °F83%30.09 "Hg
* Reported Sep 17 6:00 AM — Oct 2 6:00 AM, Görlitz, Weather by CustomWeather, © 2014

Note: Actual official high and low records may vary slightly from our data, if they occured in-between our weather recording intervals... More about our weather records

Advertising

Görlitz weather history for previous 24 hours

 ConditionsComfort  
Time TempWeatherWind HumidityBarometerVisibility
6:00 AM
Oct 2
50 °FFog.1 mph99%30.39 "Hg0 mi
5:00 AM50 °FFog.2 mph99%30.38 "Hg0 mi
4:00 AM49 °FFog.1 mph99%30.38 "Hg0 mi
3:00 AM48 °FFog.1 mph99%30.38 "Hg2 mi
2:00 AM47 °FFog.2 mph98%30.38 "Hg0 mi
1:00 AM51 °FFog.2 mph99%30.37 "Hg2 mi
12:00 AM52 °FFog.2 mph98%30.36 "Hg0 mi
11:00 PM
Oct 1
53 °FFog.No wind97%30.36 "Hg3 mi
10:00 PM54 °FFog.1 mph97%30.35 "Hg4 mi
9:00 PM57 °FFog.1 mph92%30.35 "Hg4 mi
8:00 PM57 °FFog.2 mph91%30.34 "Hg4 mi
7:00 PM60 °FPassing clouds.2 mph86%30.32 "Hg8 mi
6:00 PM63 °FScattered clouds.3 mph79%30.31 "Hg14 mi
5:00 PM65 °FPartly sunny.5 mph70%30.29 "Hg14 mi
4:00 PM64 °FPartly sunny.5 mph76%30.29 "Hg12 mi
3:00 PM64 °FOvercast.2 mph80%30.30 "Hg9 mi
2:00 PM63 °FOvercast.2 mph82%30.31 "Hg7 mi
1:00 PM63 °FOvercast.2 mph84%30.31 "Hg6 mi
12:00 PM62 °FFog.2 mph88%30.32 "Hg4 mi
11:00 AM61 °FFog.1 mph91%30.32 "Hg2 mi
10:00 AM60 °FFog.1 mph95%30.31 "Hg2 mi
9:00 AM59 °FFog.1 mph98%30.30 "Hg2 mi
8:00 AM56 °FFog.1 mph98%30.30 "Hg2 mi
7:00 AM55 °FFog.1 mph98%30.30 "Hg1 mi
6:00 AM56 °FFog.2 mph98%30.29 "Hg4 mi
Weather by CustomWeather, © 2014

See weather overviewHow to use our weather pages